Location: Boca do Mato
(22.9085°S, 43.2930°W)
Time: 22:08:40
(UTC+00:00)

Cosmos 2297 Rocket - Pass Details

Date: 14 July 2020
Orbit: 839 x 844 km, 71.0° (Epoch: 10 August)

Event Time Altitude Azimuth Distance (km) Brightness Sun altitude
Exits shadow 08:07:55 33° 230° (SW) 1,401 2.8 -19.5°
Maximum altitude 08:10:06 50° 284° (WNW) 1,069 2.4 -19.0°
Drops below altitude 10° 08:15:30 10° 359° (N) 2,445 4.8 -17.8°
Sets 08:18:00 0° 4° (N) 3,372 5.6 -17.2°
